Location: Campolattaro
(41.2833°N, 14.7333°E)
Time: 21:46:18
(UTC+00:00)

CZ-2C R/B - Pass Details

Date: 19 May 2025
Orbit: 631 x 693 km, 98.1° (Epoch: 15 June)

Event Time Altitude Azimuth Distance (km) Brightness Sun altitude
Rises 21:38:08 0° 15° (NNE) 2,933 7.8 -26.0°
Reaches altitude 10° 21:40:22 10° 18° (NNE) 2,020 6.8 -26.2°
Enters shadow 21:43:46 51° 41° (NE) 802 4.2 -26.4°
